time_stamp(utc),avg(mph),gust(mph),direction(deg),12m_air_temp(f),sonic_u(cm/s),sonic_v(cm/s),sonic_w(cm/s),pressure,2m_air_temp(f),pyranometer(W/m^2)
"2021-07-11 00:02:39+00",12.4,14.4,,73,512,249,23,1015.33,73.5,0
"2021-07-11 00:07:39+00",12.3,14.3,,72.9,519,225,16,1015.33,73.3,0
"2021-07-11 00:12:39+00",12.2,14.2,,72.9,536,171,36,1015.23,73.1,0
"2021-07-11 00:17:39+00",12.9,14.9,,72.7,541,222,30,1015.4,73,0
"2021-07-11 00:22:39+00",11.6,12.6,,72.7,522,131,26,1015.31,72.8,0
"2021-07-11 00:27:39+00",12.3,14.3,,72.7,537,159,34,1015.35,72.7,0
"2021-07-11 00:32:39+00",11.5,13.5,,72.6,493,170,52,1015.41,72.6,0
"2021-07-11 00:37:39+00",13.9,14.9,,72.6,633,97,25,1015.47,72.6,0
"2021-07-11 00:42:39+00",13.0,15.0,,72.6,595,81,42,1015.47,72.5,0
"2021-07-11 00:47:39+00",12.0,13.0,,72.5,529,84,19,1015.44,72.5,0
"2021-07-11 00:52:39+00",11.2,13.2,,72.3,502,54,39,1015.68,72.4,0
"2021-07-11 00:57:39+00",11.1,12.1,,72.2,496,73,28,1015.71,72.3,0
"2021-07-11 01:02:39+00",11.8,12.8,,72.1,526,47,28,1015.71,72.2,0
"2021-07-11 01:07:39+00",11.2,12.2,,72.1,512,51,25,1015.76,72.1,0
"2021-07-11 01:12:39+00",12.5,14.5,,72.1,563,37,28,1015.77,72,0
"2021-07-11 01:17:39+00",11.4,13.4,,72.1,520,-28,36,1015.85,71.9,0
"2021-07-11 01:22:39+00",12.3,13.3,,72.3,552,-96,15,1015.85,71.9,0
"2021-07-11 01:27:39+00",10.9,12.9,,72.3,500,-5,36,1015.97,71.9,0
"2021-07-11 01:32:39+00",11.1,12.1,,72.2,503,-24,24,1015.97,71.9,0
"2021-07-11 01:37:39+00",10.3,11.3,,72,457,12,25,1015.95,71.8,0
"2021-07-11 01:42:39+00",10.3,12.3,,71.6,465,32,33,1016.05,71.7,0
"2021-07-11 01:47:39+00",9.2,10.2,,71.5,413,9,-19,1016.17,71.5,0
"2021-07-11 01:52:39+00",8.6,9.6,,71.5,364,-33,-19,1016.25,71.4,0
"2021-07-11 01:57:39+00",7.5,8.5,,71.5,307,-23,-26,1016.22,71.3,0
"2021-07-11 02:02:39+00",6.9,7.9,,71.4,284,-34,-51,1016.13,71.2,0
"2021-07-11 02:07:39+00",7.5,8.5,,71.3,279,-87,-62,1016.26,71.1,0
"2021-07-11 02:12:39+00",6.3,7.3,,71.1,219,-94,-45,1016.37,70.9,0
"2021-07-11 02:17:39+00",6.2,7.2,,71.1,210,-108,-48,1016.33,70.7,0
"2021-07-11 02:22:39+00",6.0,7.0,,71.1,185,-136,-45,1016.46,70.7,0
"2021-07-11 02:27:39+00",5.1,6.1,,71.1,146,-135,-41,1016.48,70.6,0
"2021-07-11 02:32:39+00",4.6,4.6,,71.1,113,-123,-32,1016.53,70.6,0
"2021-07-11 02:37:39+00",4.0,5.0,,71.1,45,-131,-36,1016.47,70.6,0
"2021-07-11 02:42:39+00",3.9,3.9,,71.2,45,-130,-37,1016.46,70.6,0
"2021-07-11 02:47:39+00",4.6,5.6,,71.2,26,-163,-46,1016.38,70.6,0
"2021-07-11 02:52:39+00",4.8,4.8,,71.4,-11,-179,-38,1016.43,70.7,0
"2021-07-11 02:57:39+00",5.0,6.0,,71.5,-74,-189,-37,1016.46,70.7,0
"2021-07-11 03:02:39+00",5.4,6.4,,71.6,-117,-200,-44,1016.53,70.7,0
"2021-07-11 03:07:39+00",3.5,4.5,,71.6,-127,-144,-29,1016.68,70.7,0
"2021-07-11 03:12:39+00",4.7,4.7,,71.9,-177,-121,-35,1016.73,70.8,0
"2021-07-11 03:17:39+00",4.9,5.9,,72.1,-189,-134,-44,1016.83,70.9,0
"2021-07-11 03:22:39+00",5.5,6.5,,72.4,-223,-184,-51,1016.87,71,0
"2021-07-11 03:27:39+00",5.6,6.6,,72.7,-226,-202,-58,1016.74,71.1,0
"2021-07-11 03:32:39+00",6.2,6.2,,73.1,-258,-184,-56,1016.81,71.2,0
"2021-07-11 03:37:39+00",7.2,7.2,,73.4,-286,-190,-66,1016.88,71.3,0
"2021-07-11 03:42:39+00",6.9,7.9,,73.5,-217,-233,-38,1016.96,71.5,0
"2021-07-11 03:47:39+00",6.5,7.5,,73.5,-212,-239,-63,1016.97,71.6,0
"2021-07-11 03:52:39+00",5.9,6.9,,73.6,-176,-180,-54,1016.92,71.8,0
"2021-07-11 03:57:39+00",4.1,5.1,,73.6,-133,-93,-30,1016.96,72,0
"2021-07-11 04:02:39+00",3.9,4.9,,73.4,-87,-108,-48,1016.99,72,0
"2021-07-11 04:07:39+00",4.4,5.4,,73.5,-112,-136,-59,1016.96,72.1,0
"2021-07-11 04:12:39+00",3.9,4.9,,73.5,-90,-87,-45,1017.01,72.2,0
"2021-07-11 04:17:39+00",2.8,3.8,,73.4,-32,-76,-50,1016.97,72.2,0
"2021-07-11 04:22:39+00",5.3,7.3,,73.4,-134,-148,-65,1016.96,72.1,0
"2021-07-11 04:27:39+00",5.3,7.3,,73.3,-127,-141,-55,1016.95,72.1,0
"2021-07-11 04:32:39+00",5.8,6.8,,73.3,-144,-132,-65,1016.96,72,0
"2021-07-11 04:37:39+00",4.8,5.8,,73.3,-139,-81,-51,1016.96,71.9,0
"2021-07-11 04:42:39+00",4.8,5.8,,73.1,-130,-93,-54,1016.94,71.8,0
"2021-07-11 04:47:39+00",2.8,3.8,,73,-68,-38,-20,1016.96,71.8,0
"2021-07-11 04:52:39+00",2.8,3.8,,72.9,-80,-1,-21,1016.97,71.6,0
"2021-07-11 04:57:39+00",3.4,4.4,,72.7,-124,33,-15,1017,71.4,0
"2021-07-11 05:02:39+00",2.9,3.9,,72.8,-98,-35,-30,1016.96,71.3,0
"2021-07-11 05:07:39+00",2.8,3.8,,72.9,-80,-33,-26,1016.98,71.4,0
"2021-07-11 05:12:39+00",3.7,4.7,,72.9,-55,4,-27,1017,71.3,0
"2021-07-11 05:17:39+00",7.0,9.0,,73.1,-273,36,-139,1016.96,71.4,0
"2021-07-11 05:32:39+00",6.7,7.7,,73.3,-248,20,-38,1016.95,71.7,0
"2021-07-11 05:37:39+00",4.7,4.7,,73.4,-166,48,-41,1016.87,71.6,0
"2021-07-11 05:42:39+00",5.9,6.9,,73.5,-203,88,-49,1016.86,71.6,0
"2021-07-11 05:47:39+00",6.5,7.5,,73.8,-245,17,-56,1016.79,71.6,0
"2021-07-11 05:52:39+00",5.3,5.3,,73.9,-195,45,-42,1016.69,71.6,0
"2021-07-11 05:57:39+00",5.3,6.3,,73.7,-193,29,-45,1016.7,71.7,0
"2021-07-11 06:02:39+00",5.7,6.7,,73.6,-200,-78,-46,1016.72,71.7,0
"2021-07-11 06:07:39+00",5.9,6.9,,73.4,-212,-75,-50,1016.8,71.5,0
"2021-07-11 06:12:39+00",5.8,6.8,,73.2,-200,-74,-48,1016.85,71.4,0
"2021-07-11 06:17:39+00",6.8,6.8,,73.5,-245,-32,-61,1016.84,71.3,0
"2021-07-11 06:22:39+00",6.3,7.3,,73.4,-230,-33,-56,1016.94,71.3,0
"2021-07-11 06:27:39+00",5.6,6.6,,73.1,-202,13,-46,1017.02,71.3,0
"2021-07-11 06:32:39+00",6.0,7.0,,72.9,-222,7,-55,1016.99,71.1,0
"2021-07-11 06:37:39+00",7.4,8.4,,73.1,-266,48,-71,1016.95,71.1,0
"2021-07-11 06:42:39+00",7.0,7.0,,73.1,-247,58,-64,1017,71.1,0
"2021-07-11 06:47:39+00",6.8,7.8,,73.1,-232,53,-61,1016.98,71.2,0
"2021-07-11 06:52:39+00",7.5,7.5,,73,-261,117,-66,1016.94,71.1,0
"2021-07-11 06:57:39+00",7.8,8.8,,73,-273,118,-66,1016.88,71,0
"2021-07-11 07:02:39+00",6.8,7.8,,73.2,-221,104,-62,1016.88,71,0
"2021-07-11 07:07:39+00",5.6,6.6,,73.2,-186,14,-51,1017.02,71.1,0
"2021-07-11 07:12:39+00",2.9,3.9,,72.9,-85,-19,-30,1016.99,71.1,0
"2021-07-11 07:17:39+00",2.9,2.9,,72.6,-82,-6,-35,1016.91,70.9,0
"2021-07-11 07:22:39+00",3.6,4.6,,72.4,-97,4,-32,1017.01,70.7,0
"2021-07-11 07:27:39+00",0.7,1.7,,72.2,-11,17,-8,1017.03,70.6,0
"2021-07-11 07:32:39+00",1.4,2.4,,72.1,6,44,-14,1017.04,70.6,0
"2021-07-11 07:37:39+00",3.5,4.5,,71.8,65,105,-35,1016.96,70.5,0
"2021-07-11 07:42:39+00",3.4,3.4,,71.6,-20,105,-30,1016.93,70.4,0
"2021-07-11 07:47:39+00",2.2,3.2,,71.5,69,52,-22,1016.89,70.3,0
"2021-07-11 07:52:39+00",3.6,4.6,,71.3,45,135,-28,1016.97,70.1,0
"2021-07-11 07:57:39+00",4.6,5.6,,71.5,28,183,-35,1016.93,70,0
"2021-07-11 08:02:39+00",3.8,3.8,,71.6,66,132,-30,1017.03,69.8,0
"2021-07-11 08:07:39+00",3.6,3.6,,71.5,140,58,-29,1017.02,69.8,0
"2021-07-11 08:12:39+00",2.4,2.4,,71.6,94,34,-11,1017.03,69.7,0
"2021-07-11 08:17:39+00",1.0,1.0,,71.6,0,32,-6,1017.02,69.7,0
"2021-07-11 08:22:39+00",0.0,0.0,,71.6,0,-2,-1,1017.05,69.7,0
"2021-07-11 08:27:39+00",0.0,0.0,,71.5,-18,-31,-3,1017.13,69.8,0
"2021-07-11 08:32:39+00",1.9,2.9,,71.4,-7,-81,-10,1017.1,69.7,0
"2021-07-11 08:37:39+00",2.8,3.8,,71.4,-20,-114,-28,1017.17,69.8,0
"2021-07-11 08:42:39+00",2.4,2.4,,71.4,-37,-113,-24,1017.25,69.8,0
"2021-07-11 08:47:39+00",2.0,2.0,,71.6,-44,-88,-9,1017.21,70,0
"2021-07-11 08:52:39+00",1.5,1.5,,71.7,-37,-37,-7,1017.27,70.1,0
"2021-07-11 08:57:39+00",1.2,1.2,,71.9,-29,-53,-3,1017.3,70.1,0
"2021-07-11 09:02:39+00",0.0,0.0,,71.9,-13,-36,-1,1017.2,70,0
"2021-07-11 09:07:39+00",3.3,4.3,,71.7,59,-132,-5,1017.26,70.2,0
"2021-07-11 09:12:39+00",5.2,5.2,,71.5,120,-200,5,1017.24,70.2,0
"2021-07-11 09:17:39+00",4.0,4.0,,71.5,77,-165,-4,1017.21,70.1,0
"2021-07-11 09:22:39+00",4.5,4.5,,71.5,103,-170,-6,1017.22,70.1,0
"2021-07-11 09:27:39+00",5.0,5.0,,71.4,128,-168,-3,1017.15,70.1,0
"2021-07-11 09:32:39+00",5.4,5.4,,71.3,147,-174,0,1017.13,70.2,0
"2021-07-11 09:37:39+00",5.0,5.0,,71.4,152,-147,2,1017.1,70.1,0
"2021-07-11 09:42:39+00",4.2,5.2,,71.5,132,-116,3,1017.12,70.1,0
"2021-07-11 09:47:39+00",4.5,5.5,,71.2,107,-148,-1,1017.24,70.2,0
"2021-07-11 09:52:39+00",6.2,7.2,,71.1,-16,-256,-12,1017.56,70.2,0
"2021-07-11 09:57:39+00",4.1,6.1,,71.5,-36,-136,35,1017.66,70.5,0
"2021-07-11 10:02:39+00",5.6,6.6,,71.4,-54,-217,-9,1017.76,70.5,0
"2021-07-11 10:07:39+00",5.2,6.2,,71.4,-87,-202,-4,1017.76,70.5,0
"2021-07-11 10:12:39+00",3.6,4.6,,71.4,-45,-142,0,1017.86,70.5,0
"2021-07-11 10:17:39+00",5.0,6.0,,71.4,-84,-200,3,1018.02,70.6,0
"2021-07-11 10:22:39+00",4.6,5.6,,71.4,-90,-174,-1,1018.07,70.7,0
"2021-07-11 10:27:39+00",4.6,5.6,,71.5,-79,-174,-7,1018.1,70.7,0
"2021-07-11 10:32:39+00",5.1,6.1,,71.6,-106,-196,1,1018.24,70.9,0
"2021-07-11 10:37:39+00",5.2,6.2,,71.8,-112,-193,-3,1018.26,71,0
"2021-07-11 10:42:39+00",3.8,3.8,,72.1,-70,-144,4,1018.22,71.3,0
"2021-07-11 10:47:39+00",3.8,4.8,,72.2,-41,-150,4,1018.13,71.5,0
"2021-07-11 10:52:39+00",5.7,5.7,,72.4,-88,-221,-8,1018.22,71.8,0
"2021-07-11 10:57:39+00",6.4,6.4,,72.5,-119,-253,-3,1018.23,71.9,0
"2021-07-11 11:02:39+00",5.4,6.4,,72.7,-110,-209,-3,1018.23,72,0
"2021-07-11 11:07:39+00",6.2,6.2,,72.8,-140,-231,0,1018.34,72.2,0
"2021-07-11 11:12:39+00",5.1,6.1,,72.8,-110,-201,-3,1018.39,72.4,0
"2021-07-11 11:17:39+00",6.1,6.1,,72.8,-155,-228,-2,1018.5,72.6,0
"2021-07-11 11:22:39+00",5.3,6.3,,72.9,-140,-191,5,1018.45,72.8,0
"2021-07-11 11:27:39+00",5.0,6.0,,72.9,-146,-161,1,1018.5,73,0
"2021-07-11 11:32:39+00",4.2,5.2,,73.1,-143,-112,10,1018.64,73.3,0
"2021-07-11 11:37:39+00",4.2,5.2,,73.3,-138,-105,-1,1018.57,73.6,0
"2021-07-11 11:42:39+00",3.5,4.5,,73.5,-115,-94,-4,1018.59,73.9,0
"2021-07-11 11:47:39+00",4.5,5.5,,73.6,-91,-169,-3,1018.55,74.1,0
"2021-07-11 11:52:39+00",3.6,5.6,,73.7,-16,-137,1,1018.77,74.1,0
"2021-07-11 11:57:39+00",3.9,5.9,,73.7,-12,-161,-5,1018.6,74,0
"2021-07-11 12:02:39+00",4.7,5.7,,73.6,-25,-183,-11,1018.65,73.8,0
"2021-07-11 12:07:39+00",4.3,5.3,,73.5,-23,-163,2,1018.54,73.8,0
"2021-07-11 12:12:39+00",4.5,5.5,,73.6,-34,-184,-13,1018.64,73.8,0
"2021-07-11 12:17:39+00",4.4,5.4,,73.7,-46,-176,9,1018.6,74,0
"2021-07-11 12:22:39+00",3.0,5.0,,74,16,-104,21,1018.67,74.3,0
"2021-07-11 12:27:39+00",3.0,5.0,,74.2,-13,-112,11,1018.83,74.5,0
"2021-07-11 12:32:39+00",4.5,6.5,,74.4,-26,-178,-9,1018.85,74.7,0
"2021-07-11 12:37:39+00",4.2,5.2,,74.5,-13,-164,-15,1018.79,74.8,0
"2021-07-11 12:42:39+00",4.1,5.1,,74.8,-81,-150,16,1018.83,75.1,0
"2021-07-11 12:47:39+00",6.3,9.3,,74.9,-78,-253,-2,1018.89,75.5,0
"2021-07-11 12:52:39+00",4.1,6.1,,74.9,-55,-151,25,1018.83,75.6,0
"2021-07-11 12:57:39+00",5.3,7.3,,75,2,-211,4,1018.76,75.5,0
"2021-07-11 13:02:39+00",7.1,8.1,,75,32,-294,-27,1018.79,75.7,0
"2021-07-11 13:07:39+00",5.9,6.9,,74.9,-44,-238,4,1018.83,75.6,0
"2021-07-11 13:12:39+00",6.6,7.6,,74.9,-83,-264,8,1018.93,75.7,0
"2021-07-11 13:17:39+00",5.7,7.7,,75,-40,-220,-1,1018.93,75.8,0
"2021-07-11 13:22:39+00",6.2,7.2,,75.2,-118,-243,12,1018.92,75.9,0
"2021-07-11 13:27:39+00",8.0,9.0,,75.4,-104,-321,-17,1018.98,75.9,0
"2021-07-11 13:32:39+00",7.9,8.9,,75.4,-163,-304,11,1018.9,76.1,0
"2021-07-11 13:37:39+00",6.5,7.5,,75.8,-145,-252,11,1018.97,76.7,0
"2021-07-11 13:42:39+00",5.3,6.3,,76.2,-64,-223,11,1018.93,77.1,0
"2021-07-11 13:47:39+00",7.9,9.9,,76.5,9,-319,-18,1018.89,77.2,0
"2021-07-11 13:52:39+00",7.0,8.0,,76.7,-6,-286,-12,1018.9,77.3,0
"2021-07-11 13:57:39+00",5.0,7.0,,77.1,2,-188,39,1018.95,77.7,0
"2021-07-11 14:02:39+00",6.7,8.7,,77.3,71,-245,36,1019.02,78,0
"2021-07-11 14:07:39+00",6.2,8.2,,77.1,46,-253,8,1019.04,77.9,0
"2021-07-11 14:12:39+00",7.5,9.5,,77.3,77,-288,1,1018.95,78,0
"2021-07-11 14:17:39+00",8.5,10.5,,77,98,-334,-11,1018.84,77.9,0
"2021-07-11 14:22:39+00",7.5,9.5,,77,73,-325,-3,1018.76,77.9,0
"2021-07-11 14:27:39+00",7.8,9.8,,77,79,-300,18,1018.75,78.1,0
"2021-07-11 14:32:39+00",9.8,10.8,,76.8,129,-409,-20,1018.86,78.1,0
"2021-07-11 14:37:39+00",7.9,9.9,,76.5,104,-313,21,1018.88,77.6,0
"2021-07-11 14:42:39+00",8.9,10.9,,76.3,126,-352,2,1018.95,77.6,0
"2021-07-11 14:47:39+00",9.9,11.9,,76.3,138,-394,-2,1018.91,77.7,0
"2021-07-11 14:52:39+00",7.8,9.8,,76.7,75,-328,8,1018.88,78,0
"2021-07-11 14:57:39+00",8.0,11.0,,76.9,69,-341,-4,1018.98,77.9,0
"2021-07-11 15:02:39+00",7.6,9.6,,76.9,90,-303,-1,1019.03,77.7,0
"2021-07-11 15:07:39+00",9.5,12.5,,76.7,118,-390,-9,1019.06,77.9,0
"2021-07-11 15:12:39+00",10.0,12.0,,76.2,98,-432,-29,1019.05,77.6,0
"2021-07-11 15:17:39+00",8.4,10.4,,75.6,112,-336,2,1019.15,77.1,0
"2021-07-11 15:22:39+00",8.0,11.0,,75.6,97,-331,10,1019.24,76.9,0
"2021-07-11 15:27:39+00",7.5,9.5,,75.9,108,-303,2,1019.39,77.3,0
"2021-07-11 15:32:39+00",7.4,10.4,,75.8,60,-311,17,1019.36,77.2,0
"2021-07-11 15:37:39+00",7.8,9.8,,76,52,-308,3,1019.37,77.2,0
"2021-07-11 15:42:39+00",9.2,11.2,,76.1,78,-387,-12,1019.36,77.6,0
"2021-07-11 15:47:39+00",9.4,11.4,,76.1,122,-365,23,1019.28,77.6,0
"2021-07-11 15:52:39+00",9.5,11.5,,76.1,104,-379,7,1019.3,77.7,0
"2021-07-11 15:57:39+00",9.3,11.3,,76.3,72,-406,-10,1019.3,77.7,0
"2021-07-11 16:02:39+00",11.3,12.3,,76.2,108,-464,-15,1019.26,78,0
"2021-07-11 16:07:39+00",10.5,13.5,,76,93,-428,-15,1019.32,77.7,0
"2021-07-11 16:12:39+00",9.6,13.6,,76.1,69,-402,-8,1019.29,77.8,0
"2021-07-11 16:17:39+00",8.3,11.3,,76,23,-344,5,1019.26,77.4,0
"2021-07-11 16:22:39+00",10.1,12.1,,75.7,65,-406,11,1019.22,77.2,0
"2021-07-11 16:27:39+00",10.9,13.9,,75.6,119,-441,-1,1019.09,77.1,0
"2021-07-11 16:32:39+00",10.9,11.9,,75.2,118,-470,-28,1019.16,77,0
"2021-07-11 16:37:39+00",7.8,9.8,,75.6,69,-310,13,1019.18,77.2,0
"2021-07-11 16:42:39+00",9.5,11.5,,75.6,209,-363,12,1019.18,77.3,0
"2021-07-11 16:47:39+00",9.9,12.9,,75.4,200,-387,18,1019.18,77.5,0
"2021-07-11 16:52:39+00",10.0,12.0,,75.2,185,-401,-1,1019.13,77.1,0
"2021-07-11 16:57:39+00",10.2,12.2,,75.5,97,-426,-27,1019.03,77.2,0
"2021-07-11 17:02:39+00",10.4,12.4,,75.5,168,-409,5,1019.06,77.4,0
"2021-07-11 17:07:39+00",11.4,14.4,,75.4,150,-474,6,1019.05,77.4,0
"2021-07-11 17:12:39+00",9.7,12.7,,75.4,110,-390,13,1018.97,77.3,0
"2021-07-11 17:17:39+00",11.5,13.5,,75.5,167,-463,-19,1018.89,77.3,0
"2021-07-11 17:22:39+00",12.7,14.7,,75.2,152,-522,-34,1018.74,77.1,0
"2021-07-11 17:27:39+00",11.9,12.9,,75.7,222,-460,4,1018.61,77.5,0
"2021-07-11 17:32:39+00",10.7,13.7,,75.7,194,-409,-8,1018.54,77.7,0
"2021-07-11 17:37:39+00",10.0,12.0,,75.7,170,-382,-8,1018.49,77.8,0
"2021-07-11 17:42:39+00",11.9,14.9,,75.7,146,-499,-52,1018.42,77.5,0
"2021-07-11 17:47:39+00",10.5,13.5,,75.9,101,-435,7,1018.42,77.7,0
"2021-07-11 17:52:39+00",12.6,14.6,,75.8,208,-506,1,1018.36,77.7,0
"2021-07-11 17:57:39+00",11.1,13.1,,75.9,149,-425,3,1018.41,77.6,0
"2021-07-11 18:02:39+00",9.4,11.4,,76,173,-374,-2,1018.29,77.8,0
"2021-07-11 18:07:39+00",11.5,12.5,,76.2,122,-475,-27,1018.23,78.3,0
"2021-07-11 18:12:39+00",10.1,12.1,,76.3,169,-393,42,1018.14,78.2,0
"2021-07-11 18:17:39+00",12.3,14.3,,76.2,168,-507,-21,1018.12,78,0
"2021-07-11 18:22:39+00",11.8,15.8,,76.1,122,-500,-50,1018.16,77.9,0
"2021-07-11 18:27:39+00",10.1,14.1,,75.8,153,-406,-13,1018.15,77.8,0
"2021-07-11 18:32:39+00",10.7,12.7,,76,198,-415,-13,1018.1,77.9,0
"2021-07-11 18:37:39+00",11.7,13.7,,75.9,221,-462,-20,1017.98,77.8,0
"2021-07-11 18:42:39+00",11.3,13.3,,76,132,-476,0,1018.04,78,0
"2021-07-11 18:47:39+00",11.2,13.2,,76,190,-448,-13,1018,78,0
"2021-07-11 18:52:39+00",9.5,13.5,,76.1,142,-371,28,1018.06,78.1,0
"2021-07-11 18:57:39+00",13.3,16.3,,75.9,185,-547,-31,1017.92,77.7,0
"2021-07-11 19:02:39+00",13.6,16.6,,76.2,225,-541,-17,1017.96,78.1,0
"2021-07-11 19:07:39+00",11.0,13.0,,76.1,196,-417,9,1018.09,78,0
"2021-07-11 19:12:39+00",12.1,15.1,,76.1,104,-514,4,1017.98,77.9,0
"2021-07-11 19:17:39+00",11.8,15.8,,76.2,216,-432,17,1017.97,78,0
"2021-07-11 19:22:39+00",13.6,15.6,,76.1,284,-520,-12,1017.9,77.6,0
"2021-07-11 19:27:39+00",12.8,14.8,,75.8,271,-474,14,1017.89,77.2,0
"2021-07-11 19:32:39+00",13.9,15.9,,76.1,276,-519,10,1017.86,77.6,0
"2021-07-11 19:37:39+00",14.4,17.4,,75.7,257,-554,8,1017.79,77.1,0
"2021-07-11 19:42:39+00",16.0,19.0,,75.8,341,-606,-12,1017.73,77.2,0
"2021-07-11 19:47:39+00",14.3,16.3,,76,296,-548,28,1017.69,77.3,0
"2021-07-11 19:52:39+00",15.3,17.3,,75.5,306,-582,-16,1017.67,76.8,0
"2021-07-11 19:57:39+00",14.1,16.1,,75.5,236,-552,-21,1017.71,76.7,0
"2021-07-11 20:02:39+00",13.9,16.9,,75.5,254,-551,28,1017.68,76.7,0
"2021-07-11 20:07:39+00",16.5,18.5,,75.4,282,-665,-40,1017.64,76.8,0
"2021-07-11 20:12:39+00",12.8,14.8,,75.5,220,-510,2,1017.68,76.8,0
"2021-07-11 20:17:39+00",13.2,15.2,,75.1,261,-511,-11,1017.63,76.3,0
"2021-07-11 20:22:39+00",11.9,13.9,,75.1,275,-447,-6,1017.66,76.3,0
"2021-07-11 20:27:39+00",13.0,16.0,,75.2,247,-497,-38,1017.72,76.3,0
"2021-07-11 20:32:39+00",11.6,13.6,,75.1,258,-440,-4,1017.76,76.1,0
"2021-07-11 20:37:39+00",12.9,14.9,,74.9,315,-460,-19,1017.76,76,0
"2021-07-11 20:42:39+00",10.3,12.3,,74.9,257,-360,32,1017.83,75.9,0
"2021-07-11 20:47:39+00",10.6,12.6,,75.2,265,-381,28,1017.8,76,0
"2021-07-11 20:52:39+00",12.8,15.8,,75.5,280,-499,23,1017.64,76.4,0
"2021-07-11 20:57:39+00",14.6,17.6,,75.5,344,-552,-11,1017.63,76.7,0
"2021-07-11 21:02:39+00",13.4,15.4,,75.4,297,-487,32,1017.56,76.8,0
"2021-07-11 21:07:39+00",13.8,15.8,,75.6,239,-534,23,1017.48,77,0
"2021-07-11 21:12:39+00",15.2,18.2,,75.2,286,-585,10,1017.45,76.4,0
"2021-07-11 21:17:39+00",16.0,19.0,,74.8,181,-672,-23,1017.46,75.9,0
"2021-07-11 21:22:39+00",14.0,17.0,,74.4,152,-587,0,1017.5,75.4,0
"2021-07-11 21:27:39+00",11.1,15.1,,74.5,145,-470,27,1017.35,75.4,0
"2021-07-11 21:32:39+00",10.5,14.5,,74.4,128,-412,10,1017.3,75.4,0
"2021-07-11 21:37:39+00",12.6,14.6,,74.2,157,-529,-17,1017.22,75.3,0
"2021-07-11 21:42:39+00",13.1,14.1,,74.1,167,-538,-30,1017.19,75,0
"2021-07-11 21:47:39+00",11.6,14.6,,74.1,182,-442,16,1017.23,75.1,0
"2021-07-11 21:52:39+00",13.1,16.1,,73.9,176,-531,-24,1017.17,74.9,0
"2021-07-11 21:57:39+00",11.3,14.3,,73.8,185,-440,7,1017.07,74.7,0
"2021-07-11 22:02:39+00",11.4,13.4,,73.8,175,-471,-23,1017.07,74.7,0
"2021-07-11 22:07:39+00",12.2,14.2,,73.8,297,-453,7,1016.92,74.7,0
"2021-07-11 22:12:39+00",11.0,13.0,,74,192,-448,0,1016.92,74.7,0
"2021-07-11 22:17:39+00",10.4,12.4,,73.9,140,-414,8,1016.98,74.6,0
"2021-07-11 22:22:39+00",12.8,15.8,,73.8,227,-512,-22,1016.91,74.4,0
"2021-07-11 22:27:39+00",12.4,14.4,,73.9,209,-495,-18,1016.9,74.4,0
"2021-07-11 22:32:39+00",11.4,13.4,,74,195,-454,-12,1016.81,74.6,0
"2021-07-11 22:37:39+00",10.8,12.8,,74.1,154,-432,-7,1016.9,74.5,0
"2021-07-11 22:42:39+00",12.5,14.5,,74.1,186,-486,6,1016.89,74.6,0
"2021-07-11 22:47:39+00",12.0,14.0,,74.1,189,-483,-17,1016.99,74.6,0
"2021-07-11 22:52:39+00",12.0,15.0,,74.2,197,-486,-28,1016.93,74.7,0
"2021-07-11 22:57:39+00",11.6,13.6,,74.2,196,-481,-14,1017.04,74.7,0
"2021-07-11 23:02:39+00",10.4,11.4,,74.1,221,-391,9,1016.92,74.7,0
"2021-07-11 23:07:39+00",10.9,11.9,,74,253,-406,-5,1016.79,74.5,0
"2021-07-11 23:12:39+00",11.1,13.1,,73.9,301,-389,-15,1016.59,74.5,0
"2021-07-11 23:17:39+00",10.0,11.0,,73.8,265,-336,4,1016.72,74.4,0
"2021-07-11 23:22:39+00",9.9,12.9,,73.8,213,-361,7,1016.58,74.2,0
"2021-07-11 23:27:39+00",12.1,14.1,,73.7,281,-443,2,1016.41,74.3,0
"2021-07-11 23:32:39+00",11.6,12.6,,73.8,235,-440,7,1016.35,74.3,0
"2021-07-11 23:37:39+00",13.3,16.3,,73.8,298,-510,-19,1016.31,74.3,0
"2021-07-11 23:42:39+00",13.1,16.1,,73.9,317,-483,-3,1016.24,74.3,0
"2021-07-11 23:47:39+00",12.4,14.4,,73.9,270,-471,27,1016.42,74.3,0
"2021-07-11 23:52:39+00",13.5,15.5,,73.6,268,-524,12,1016.3,74,0
"2021-07-11 23:57:39+00",13.7,15.7,,73.4,324,-508,3,1016.23,73.7,0
